Kezdőlap
METAR-TAF:

METAR-TAF

Repülőterek :

Independence Municipal Airport

Independence, Iowa, Amerikai Egyesült Államok

földrajzi szélesség: 42-27N, földrajzi hosszúság: 091-56W, magasság: 298 m

Jelenlegi meteorológiai megfigyelések

A jelentés 24 perccel ezelõtt készült, 12:55 UTC
Nyugat-délnyugati szél 4 kt
Hőmérséklet -20°C
Páratartalom 92%
Légköri nyomás 1017 hPa
Látótávolság: 16.1 km
Derült ég

METAR: KIIB 281255Z AUTO 25004KT 10SM CLR M20/M21 A3002 RMK AO2 T11961214

Idő: 08:19 (13:19 UTC)


TAF: hiányzik

Meteorológiai megfigyelések és előrejelzések több, mint 4000 repülőtéren (METAR és TAF jelentéseket).

A térképen piros és sárga pontok jelzik az elérhető meteorológiai állomásokat.

Mozgassa az egeret a pont fölött, hogy megjelenjen az állomás neve.

Azután kattintson az időjárási megfigyelések és előrejelzések megtekintéséhez.

A térkép megváltoztatása: kattintson a fekete keresztel jelölt zöld gombra ráközelítéshez, a vonallal jelölt zöld gombra távolításhoz, vagy a zöld nyilakra a szomszédos térképek eléréséhez.


METAR-TAF: